Regional Weather Roundup
Issued by NWS

Home | Current Version | Previous Version | Text Only | Print | Product List | Glossary Off
Versions: 1 2 3 4 5 6 7 8 9 10 11 12 13 14 15 16 17 18 19 20 21 22 23 24 25 26 27 28 29 30 31 32 33 34 35 36 37 38 39 40 41 42 43 44 45 46 47 48 49 50

000
ASUS43 KMPX 011410
RWRMN
WEATHER ROUNDUP FOR MINNESOTA
NATIONAL WEATHER SERVICE TWIN CITIES/CHANHASSEN MN
900 AM CDT FRI AUG 01 2014


NOTE: "FAIR" INDICATES FEW OR NO CLOUDS BELOW 12,000 FEET WITH NO
SIGNIFICANT WEATHER AND/OR OBSTRUCTIONS TO VISIBILITY. N/A MEANS
CURRENT SKY AND/OR WEATHER CONDITIONS ARE NOT AVAILABLE.

MNZ060>063-068>070-011500-
   Twin Cities Metro

CITY           SKY/WX    TMP DP  RH WIND       PRES   REMARKS
TWIN CITIES    SUNNY     71  61  70 W3        30.06S
ST PAUL        SUNNY     70  62  76 CALM      30.06S
CRYSTAL        MOSUNNY   72  61  68 NW3       30.05S
BLAINE         SUNNY     72  64  78 CALM      30.06S
LAKEVILLE      SUNNY     70  61  73 W3        30.07S
EDEN PRAIRIE   SUNNY     68  61  78 CALM      30.06S
SOUTH ST PAUL  SUNNY     71  61  71 CALM      30.06S
LAKE ELMO      FAIR      70  63  78 CALM      30.07S
$$
MNZ001>005-007-008-013>017-022>024-027-028-011500-
   Northwest Minnesota

CITY           SKY/WX    TMP DP  RH WIND       PRES   REMARKS
BEMIDJI        SUNNY     66  59  79 NW5       30.07S
HALLOCK        SUNNY     68  61  77 N5        30.06S
ROSEAU         SUNNY     63  57  82 NW3       30.07R
WARROAD        SUNNY     64  61  88 CALM      30.07R
THIEF RVR FALL SUNNY     66  61  82 CALM      30.07S
CROOKSTON      SUNNY     66  61  82 CALM      30.07S
FOSSTON        SUNNY     64  63  94 CALM      30.08S
DETROIT LAKES  SUNNY     70  61  73 CALM      30.08S
MOORHEAD       SUNNY     64  64 100 CALM      30.07R
PARK RAPIDS    MOSUNNY   67  62  84 CALM      30.08R
$$
MNZ006-009>011-018-025>026-011500-
   North Central Minnesota

CITY           SKY/WX    TMP DP  RH WIND       PRES   REMARKS
BAUDETTE       SUNNY     64  60  87 CALM      30.06S
FLAG ISLAND    SUNNY     68  57  68 N5        30.05S
INTL FALLS     SUNNY     64  59  83 CALM      30.06R
WASKISH        SUNNY     64  63  94 CALM      30.06R
BIG FORK       MOSUNNY   64  59  82 CALM      30.06S
LONGVILLE      MOSUNNY   64  64 100 CALM      30.07R
GRAND RAPIDS   SUNNY     66  61  82 S3        30.06S
CRANE LAKE     SUNNY     59  55  88 CALM      30.08R
ORR            MOSUNNY   63  57  82 CALM      30.03F
COOK           SUNNY     61  57  88 CALM      30.07S
$$
MNZ012-019>021-037-011500-
   Northeast Minnesota

CITY           SKY/WX    TMP DP  RH WIND       PRES   REMARKS
DULUTH         SUNNY     63  54  72 SE3       30.07S
ELY            SUNNY     61  54  77 S3        30.07S
HIBBING        MOSUNNY   64  57  78 CALM      30.06F
EVELETH        SUNNY     59  59 100 E3        30.08S
DULUTH HARBOR  SUNNY     61  55  82 E6        30.08R
TWO HARBORS    SUNNY     63  52  67 NE3       30.05S
SILVER BAY     SUNNY     63  57  82 CALM      30.05S
GRAND MARAIS     N/A     57  50  77 CALM      30.06S
G MARAIS ARPRT SUNNY     63  48  59 S3        30.09S
$$
MNZ029>031-032-039>041-046>048-054>057-064-011500-
   West Central Minnesota

CITY           SKY/WX    TMP DP  RH WIND       PRES   REMARKS
FERGUS FALLS   MOSUNNY   66  61  82 CALM      30.06F
WHEATON        SUNNY     66  61  82 CALM      30.09S
MORRIS         SUNNY     70  63  78 NW3       30.07S
ALEXANDRIA     MOSUNNY   68  62  81 CALM      30.09S
ELBOW LAKE     FAIR      67  61  82 NW6       30.07S
WADENA         MOSUNNY   66  64  94 CALM      30.07S
GLENWOOD       MOSUNNY   66  61  82 CALM      30.09S HAZE
APPLETON       SUNNY     68  61  77 CALM      30.07S
BENSON         SUNNY     66  63  88 CALM      30.08S
ORTONVILLE     SUNNY     70  57  64 NW3       30.08R
MADISON        SUNNY     70  61  73 CALM      30.08S
WILLMAR        FAIR      66  61  82 CALM      30.09S
$$
MNZ033>034-036-042>043-049>051-058-059-011500-
   Central Minnesota

CITY           SKY/WX    TMP DP  RH WIND       PRES   REMARKS
ST CLOUD       SUNNY     71  62  73 CALM      30.06S
SAUK CENTRE    FAIR      69  63  82 CALM      30.08S
PAYNESVILLE    MOSUNNY   65  61  87 CALM      30.08F
AITKIN         SUNNY     66  61  82 CALM      30.06R
PINE RIVER     MOSUNNY   66  61  82 CALM      30.10S
BRAINERD       SUNNY     67  63  87 CALM      30.08
STAPLES        MOSUNNY   66  61  82 CALM      30.07F
LONG PRAIRIE   PTSUNNY   70  61  73 CALM      30.08S
LITTLE FALLS   SUNNY     64  61  88 CALM      30.07S
LITCHFIELD     MOSUNNY   70  64  83 NW6       30.08S
BUFFALO        SUNNY     68  60  75 CALM      30.08S
MAPLE LAKE     SUNNY     69  63  81 CALM      30.08S
$$
MNZ037-044-045-052-053-011500-
   East Central Minnesota

CITY           SKY/WX    TMP DP  RH WIND       PRES   REMARKS
PRINCETON      MOSUNNY   70  63  78 CALM      30.06S
MORA           SUNNY     64  59  82 CALM      30.07S
CAMBRIDGE      MOSUNNY   70  59  68 CALM      30.05R
RUSH CITY      SUNNY     67  62  83 CALM      30.06S
MOOSE LAKE     SUNNY     63  59  88 CALM      30.05S
HINCKLEY       FAIR      66  63  88 CALM      30.06S
CLOQUET        SUNNY     63  55  77 E5        30.07S
MCGREGOR       SUNNY     63  61  94 CALM      30.07S
$$
MNZ071>073-080-081-089-090-097-098-011500-
   Southwest Minnesota

CITY           SKY/WX    TMP DP  RH WIND       PRES   REMARKS
MONTEVIDEO     SUNNY     70  64  83 N3        30.09S
GRANITE FALLS  SUNNY     65  60  83 CALM      30.10S
CANBY          SUNNY     70  59  68 W3        30.09S
MARSHALL       SUNNY     70  59  68 CALM      30.09R
REDWOOD FALLS  SUNNY     68  58  70 CALM      30.08S
OLIVIA         SUNNY     70  61  73 NW3       30.07F
PIPESTONE      SUNNY     68  59  73 CALM      30.11S
WINDOM         SUNNY     66  61  82 CALM      30.10S
WORTHINGTON    SUNNY     66  63  88 SW3       30.12S
JACKSON        SUNNY     68  61  77 CALM      30.11R
TRACY          SUNNY     72  61  67 CALM      30.10S
SLAYTON        SUNNY     66  62  86 CALM      30.12S
$$
MNZ065>067-074>077-082>085-091>093-011500-
   South Central Minnesota

CITY           SKY/WX    TMP DP  RH WIND       PRES   REMARKS
MANKATO        SUNNY     66  57  72 CALM      30.08S
NEW ULM        SUNNY     68  61  77 NW5       30.08S
ST JAMES       SUNNY     70  59  68 CALM      30.10R
FAIRMONT       SUNNY     70  59  68 NW5       30.10S
GLENCOE        SUNNY     69  60  72 CALM      30.07S
FARIBAULT      SUNNY     72  57  60 CALM      30.08S
OWATONNA       SUNNY     66  59  77 CALM      30.09S
WASECA         SUNNY     63  57  82 CALM      30.11R
ALBERT LEA     SUNNY     70  63  78 CALM      30.09S
$$
MNZ078>079-086>088-094>096-011500-
   Southeast Minnesota

CITY           SKY/WX    TMP DP  RH WIND       PRES   REMARKS
ROCHESTER      SUNNY     70  57  63 NW6       30.11R
RED WING       SUNNY     70  61  73 W3        30.05S
STANTON        SUNNY     68  61  77 SW3       30.07S
DODGE CENTER   SUNNY     70  57  64 W5        30.09S
WINONA         SUNNY     70  61  73 CALM      30.07S
AUSTIN         SUNNY     66  61  82 CALM      30.09S
PRESTON        SUNNY     68  61  79 CALM      30.10R
$$
ABBREVIATIONS USED IN REMARKS
   TC - TEMPERATURES IN CELSIUS
  WCI - WIND CHILL INDEX
   HX - HEAT INDEX
  VSB - VISIBILITY
$$


USA.gov is the U.S. government's official web portal to all federal, state and local government web resources and services.